#timestamp,LO_Frequency,Hit,StdDev 
1541271615.6,286047004.0,P
1541271635.4,286047005.0,P
1541271655.3,286047009.1,P
1541271675.1,286047006.4,N
1541271695.9,286047008.6,Y
1541271715.7,286046999.8,P
1541271735.5,286047000.2,N
1541271755.4,286047002.5,N
1541271775.2,286046999.7,N
1541271795.0,286047000.4,N
1541271795.9,286047000.4,N
1541271815.8,286046998.3,N
1541271835.6,286046998.9,N
1541271855.5,286047000.7,N
1541271875.3,286046999.4,N
1541271895.1,286046996.8,N
1541271915.9,286046998.0,N
1541271935.7,286046997.9,N
1541271955.5,286046998.0,N
1541271975.4,286046997.1,N
1541271995.2,286046997.5,N
1541272015.0,286046995.5,N
1541272016.0,286046995.5,N
1541272035.8,286046995.2,N
1541272055.6,286046995.1,N
1541272075.5,286046997.6,N
1541272095.3,286046997.3,N
1541272115.1,286046998.4,N
1541272135.9,286047000.2,N
1541272155.7,286047001.7,N
1541272175.5,286047004.3,N
1541272195.4,286047003.8,N
1541272215.2,286047001.3,N
1541272235.1,286047004.3,N
1541272236.0,286047004.3,N
1541272255.8,286047001.4,N
1541272275.6,286047003.3,N
1541272295.5,286047003.4,N
1541272315.3,286047005.9,N
1541272335.1,286047004.5,N
1541272355.9,286047005.8,N
1541272375.7,286047005.7,N
1541272395.6,286047004.5,N
1541272415.4,286047005.2,N
1541272435.2,286047003.2,N
1541272455.1,286047005.9,N
1541272456.0,286047005.9,N
1541272475.8,286047005.8,N
1541272495.7,286047005.1,N
1541272515.5,286047009.1,N
1541272535.3,286047006.9,N
1541272555.2,286047006.9,N
1541272575.9,286047009.2,N
1541272595.7,286047010.3,N
1541272615.6,286047010.1,N
1541272635.4,286047011.8,Y
1541272655.3,286047006.1,P
1541272675.1,286047008.6,P
1541272676.0,286047008.6,P
1541272695.8,286047010.6,Y
1541272715.7,286047006.0,P
1541272735.5,286047005.9,P
1541272755.3,286047006.0,P
1541272775.2,286047004.7,Y
1541272795.0,286046999.4,P
1541272795.9,286046999.4,N
1541272815.8,286046997.9,N
1541272835.6,286046995.8,N
1541272855.4,286046996.1,N
1541272875.3,286046994.6,N
1541272895.1,286046995.9,N
1541272915.8,286046993.3,N
1541272935.7,286046993.8,N
1541272955.5,286046996.3,N
1541272975.4,286046994.9,N
1541272995.2,286046999.4,N
1541273015.0,286046996.9,N
1541273015.9,286046996.9,N
1541273035.8,286046999.3,N
1541273055.6,286046999.5,N
1541273075.4,286046997.8,N
1541273095.3,286046995.3,N
1541273115.1,286046995.8,N
1541273135.9,286046993.4,N
1541273155.7,286046993.5,N
1541273175.5,286046997.6,N
1541273195.4,286046997.2,N
1541273215.2,286046997.4,N
1541273235.0,286046999.0,N
1541273235.9,286046999.0,N
1541273255.8,286046999.0,N
1541273275.6,286046998.9,N
1541273295.5,286046998.2,N
1541273315.3,286046999.5,N
1541273335.1,286047001.2,N
1541273355.9,286046998.1,N
1541273375.7,286046998.4,N
1541273395.5,286047002.7,N
1541273415.4,286047002.6,N
1541273435.2,286046999.8,N
1541273455.0,286047000.4,N
1541273456.0,286047000.4,N
1541273475.8,286047000.4,N
1541273495.6,286047000.3,N
1541273515.5,286047002.8,N
1541273535.3,286047002.8,N
1541273555.1,286046999.9,N
1541273575.9,286046998.6,N
1541273595.7,286046998.4,N
1541273615.5,286047002.5,N
1541273635.4,286047002.2,N
1541273655.2,286047001.9,N
1541273675.1,286047001.6,N
1541273676.0,286047001.6,N
1541273695.8,286047002.1,N
1541273715.6,286046998.3,N
1541273735.5,286046996.5,N
1541273755.3,286046997.5,N
1541273775.2,286046997.5,N
1541273795.9,286046995.4,N
1541273815.7,286046995.3,N
1541273835.6,286046997.1,N
1541273855.4,286046996.5,N
1541273875.2,286046998.4,N
1541273895.1,286046999.3,N
1541273896.0,286046999.3,N
1541273915.8,286046999.2,N
1541273935.6,286046997.3,N
1541273955.5,286046996.8,N
1541273975.3,286046996.7,N
1541273995.2,286046999.6,N
1541274015.9,286047000.7,N
1541274035.7,286046999.9,N
1541274055.6,286047001.7,N
1541274075.4,286047003.9,N
1541274095.2,286047002.0,N
1541274115.1,286047000.7,N
1541274116.0,286047000.7,N
1541274135.8,286047000.8,N
1541274155.7,286047001.8,N
1541274175.5,286047003.9,N
1541274195.3,286047004.1,N
1541274215.2,286047003.1,N
1541274235.0,286047004.1,N
1541274235.9,286047004.1,N
1541274255.8,286047003.3,N
1541274275.6,286047001.8,N
1541274295.4,286047003.9,N
1541274315.3,286047003.0,N
1541274335.1,286047006.0,N
1541274355.8,286047001.3,N
1541274375.7,286047000.1,N
1541274395.5,286046999.1,N
1541274415.4,286046996.6,N
1541274435.2,286046997.3,N
1541274455.0,286046994.9,N
1541274455.9,286046994.9,N
1541274475.8,286046997.8,N
1541274495.6,286046996.2,N
1541274515.5,286046994.5,N
1541274535.3,286046992.0,N
1541274555.1,286046990.9,N
1541274575.9,286046991.1,N
1541274595.7,286046988.6,N
1541274615.5,286046991.0,N
1541274635.4,286046989.7,N
1541274655.2,286046988.2,N
1541274675.1,286046987.7,N
1541274676.0,286046987.7,N
1541274695.8,286046988.8,N
1541274715.6,286046987.0,N
1541274735.5,286046987.4,N
1541274755.3,286046989.5,N
1541274775.2,286046987.6,N
1541274795.9,286046987.8,N
1541274815.7,286046988.3,N
1541274835.6,286046988.4,N
1541274855.4,286046985.7,N
1541274875.2,286046988.4,N
1541274895.1,286046989.9,N
1541274896.0,286046989.9,N
1541274915.8,286046987.7,Y
1541274935.7,286046997.3,P
1541274955.5,286046999.5,N
1541274975.3,286046998.7,N
1541274995.2,286046999.6,N
1541275015.9,286046998.6,N
1541275035.7,286046998.8,N
1541275055.6,286046994.9,N
1541275075.4,286046996.3,N
1541275095.2,286046993.6,N
1541275115.1,286046993.8,N
1541275116.0,286046993.8,N
1541275135.8,286046996.1,N
1541275155.7,286046995.3,N
1541275175.5,286046995.3,N
1541275195.3,286046996.9,N
